Flag for Germany Weather past 2 weeks in Moers, North Rhine-Westphalia, Germany

Now
86 °F

Sunny.


Feels Like: 84 °F
Forecast: 62 / 73 °F
Wind: 3 mph from North

Location: Duesseldorf

Current Time: Aug 3, 2015 at 9:27:31 PM

Latest Report: Aug 3, 2015 at 8:50 PM


Visibility: 10 mi

Pressure: 29.89 "Hg

Humidity: 31%

Dew point: 52 °F

Location of MoersLocation

Historic Weather in Moers — Graph

°F

Moers temperature yesterday

Maximum temperature yesterday: 81 °F (at 4:20 PM)
Minimum temperature yesterday: 50 °F (at 4:20 AM)
Average temperature yesterday: 68 °F

Past Weeks' High & Low Weather Summary

 TemperatureHumidityPressure
High93 °F (Aug 3, 3:50 PM)100% (Jul 20, 6:20 AM)30.15 "Hg (Jul 20, 6:20 AM)
Low45 °F (Jul 31, 4:50 AM)21% (Aug 3, 3:50 PM)29.50 "Hg (Jul 25, 6:50 AM)
Average65 °F67%29.90 "Hg
* Reported Jul 19 8:20 PM — Aug 3 8:20 PM, Moers, Weather by CustomWeather, © 2015

Note: Actual official high and low records may vary slightly from our data, if they occured in-between our weather recording intervals... More about our weather records

Advertising

Moers weather history for previous 24 hours

 ConditionsComfort  
Time TempWeatherWind HumidityBarometerVisibility
8:20 PM
Mon, Aug 3
88 °FSunny.7 mph27%29.89 "Hg10 mi
7:50 PM90 °FSunny.6 mph26%29.89 "Hg10 mi
7:20 PM90 °FSunny.9 mph26%29.89 "Hg10 mi
6:50 PM91 °FSunny.8 mph23%29.89 "Hg10 mi
6:20 PM91 °FPassing clouds.8 mph23%29.89 "HgN/A
5:50 PM91 °FSunny.10 mph24%29.92 "Hg10 mi
5:20 PM91 °FSunny.10 mph23%29.92 "Hg10 mi
4:50 PM91 °FSunny.10 mph21%29.92 "Hg10 mi
4:20 PM91 °FSunny.10 mph23%29.92 "Hg10 mi
3:50 PM93 °FSunny.12 mph21%29.92 "Hg10 mi
3:20 PM91 °FPassing clouds.10 mph24%29.95 "HgN/A
2:20 PM90 °FSunny.12 mph27%29.95 "Hg10 mi
1:50 PM90 °FPassing clouds.7 mph26%29.95 "HgN/A
1:20 PM88 °FSunny.9 mph27%29.95 "Hg10 mi
12:50 PM88 °FSunny.12 mph31%29.98 "Hg10 mi
12:20 PM86 °FSunny.12 mph33%29.98 "Hg10 mi
11:50 AM84 °FSunny.12 mph33%29.98 "Hg10 mi
11:20 AM82 °FSunny.10 mph35%29.98 "Hg10 mi
10:50 AM82 °FSunny.12 mph35%29.98 "Hg10 mi
10:20 AM81 °FSunny.12 mph37%29.98 "Hg10 mi
9:50 AM79 °FSunny.12 mph39%29.98 "Hg10 mi
9:20 AM75 °FSunny.12 mph41%29.98 "Hg10 mi
8:50 AM73 °FSunny.16 mph47%29.98 "Hg10 mi
8:20 AM72 °FSunny.14 mph47%29.98 "Hg10 mi
7:50 AM70 °FSunny.12 mph50%29.98 "Hg10 mi
7:20 AM70 °FSunny.10 mph50%29.98 "Hg10 mi
6:50 AM68 °FClear.10 mph53%29.98 "Hg10 mi
6:20 AM68 °FClear.9 mph53%29.98 "Hg10 mi
5:50 AM66 °FClear.8 mph56%29.98 "Hg10 mi
5:20 AM66 °FClear.9 mph60%29.98 "Hg10 mi
4:50 AM66 °FClear.10 mph60%29.98 "Hg10 mi
4:20 AM66 °FClear.9 mph64%29.98 "Hg10 mi
3:50 AM64 °FClear.7 mph68%30.01 "Hg10 mi
3:20 AM61 °FClear.7 mph72%30.01 "Hg10 mi
2:50 AM59 °FClear.2 mph77%30.01 "Hg10 mi
2:20 AM61 °FClear.1 mph72%30.01 "Hg10 mi
1:50 AM63 °FClear.3 mph68%30.01 "Hg10 mi
1:20 AM64 °FClear.5 mph64%30.01 "Hg10 mi
12:50 AM64 °FClear.3 mph60%30.04 "Hg10 mi
12:20 AM68 °FClear.2 mph53%30.04 "Hg10 mi
11:50 PM
Sun, Aug 2
68 °FClear.6 mph53%30.04 "Hg10 mi
11:20 PM68 °FClear.6 mph53%30.04 "Hg10 mi
10:50 PM70 °FClear.5 mph50%30.04 "Hg10 mi
10:20 PM72 °FClear.6 mph44%30.04 "Hg10 mi
9:50 PM73 °FSunny.8 mph41%30.04 "Hg10 mi
9:20 PM73 °FSunny.8 mph41%30.04 "Hg10 mi
Weather by CustomWeather, © 2015

See weather overviewHow to use our weather pages